Waarnemingen

Advertentie
Mijn weer
Sala, Zweden (2481): temperatuur & dauwpunt: 19.05.2020 13:00:00 - 25.05.2020 13:00:00 (CEST)Sala, Zweden (2481): windsnelheid & windstoten: 19.05.2020 13:00:00 - 25.05.2020 13:00:00 (CEST)Sala, Zweden (2481): windrichting: 19.05.2020 13:00:00 - 25.05.2020 13:00:00 (CEST)Sala, Zweden (2481): luchtdruk: 19.05.2020 13:00:00 - 25.05.2020 13:00:00 (CEST)Sala, Zweden (2481): zicht: 19.05.2020 13:00:00 - 25.05.2020 13:00:00 (CEST)Sala, Zweden (2481): neerslag: 19.05.2020 13:00:00 - 25.05.2020 13:00:00 (CEST)
Datum & Tijd tt [°C] td [°C] ff [km/u] ff [kn] fx [km/u] fx [kn] dd ppp [hPa] vv [km] rr [mm]
25.05.2020 13:00:00 15,6 7,9 10 5 20 11 N 1027,4 29 0,0
25.05.2020 12:00:00 13,8 9,2 9 5 20 11 NNO 1027,2 38 0,0
25.05.2020 11:00:00 10,9 9,5 9 5 19 10 NNW 1026,9 31 0,0
25.05.2020 10:00:00 9,1 9,0 11 6 16 9 N 1026,2 24 0,0
25.05.2020 09:00:00 8,6 8,5 10 6 18 10 N 1025,3 16 0,0
25.05.2020 08:00:00 7,7 7,6 10 6 18 10 NNO 1024,4 6 0,0
25.05.2020 07:00:00 6,8 6,7 10 6 19 11 NNO 1023,4 1,0 0,0
25.05.2020 06:00:00 6,2 6,1 11 6 22 12 NO 1022,3 0,7 0,0
25.05.2020 05:00:00 6,4 6,3 6 3 9 5 N 1021,2 11 0,0
25.05.2020 04:00:00 4,6 4,5 3 2 5 3 N 1020,1 0,8 0,0
25.05.2020 03:00:00 7,4 7,3 2 1 5 3 N 1019,1 8 0,0
25.05.2020 02:00:00 7,7 7,6 3 2 6 3 NNW 1018,2 11 0,0
25.05.2020 01:00:00 8,0 7,9 0 0 5 3 N 1017,6 12 0,0
25.05.2020 00:00:00 8,0 7,9 0 0 3 2 N 1017,0 - 0,0
24.05.2020 23:00:00 8,9 8,8 0 0 1 1 N 1016,4 4,1 0,0
24.05.2020 22:00:00 10,1 9,9 0 0 6 3 N 1015,7 21 0,0
24.05.2020 21:00:00 10,8 10,6 0 0 9 5 N 1014,8 25 0,0
24.05.2020 20:00:00 10,7 10,5 0 0 10 5 N 1014,4 28 1,4
24.05.2020 19:00:00 13,9 7,7 6 3 21 11 Z 1013,5 36 0,0
24.05.2020 18:00:00 13,1 8,4 0 0 8 5 N 1013,2 37 0,0
24.05.2020 17:00:00 15,6 7,6 2 1 16 8 ZZO 1012,7 41 0,0
24.05.2020 16:00:00 15,0 7,3 7 4 20 11 Z 1012,5 38 0,1
24.05.2020 15:00:00 15,2 6,7 4 2 21 12 Z 1012,1 39 0,0
24.05.2020 14:00:00 16,0 6,4 5 3 21 12 Z 1011,9 42 0,0
24.05.2020 13:00:00 15,5 6,2 4 2 16 9 Z 1012,1 37 0,0
24.05.2020 12:00:00 13,0 7,2 8 5 19 11 ZZW 1012,4 17 0,0
24.05.2020 11:00:00 13,5 6,1 4 2 21 12 Z 1012,1 34 0,0
24.05.2020 10:00:00 13,5 7,5 5 3 15 8 Z 1012,3 30 0,0
24.05.2020 09:00:00 13,3 8,6 3 2 10 6 Z 1012,3 25 0,0
24.05.2020 08:00:00 10,7 7,4 3 2 14 8 Z 1012,6 21 0,0
24.05.2020 07:00:00 9,3 7,1 3 2 16 8 ZZW 1012,7 16 0,0
24.05.2020 06:00:00 8,1 6,9 7 4 14 7 ZZW 1012,7 19 0,0
24.05.2020 05:00:00 8,1 7,7 7 4 16 9 ZZW 1012,4 19 0,0
24.05.2020 04:00:00 8,1 8,0 3 2 8 5 Z 1012,1 19 0,0
24.05.2020 03:00:00 7,8 7,7 0 0 12 7 N 1012,2 16 0,0
24.05.2020 02:00:00 8,1 8,0 3 2 10 5 Z 1012,4 15 0,0
24.05.2020 01:00:00 8,0 7,9 3 2 10 5 Z 1012,6 18 0,0
24.05.2020 00:00:00 7,7 7,3 0 0 8 4 N 1012,5 17 0,0
23.05.2020 23:00:00 7,9 7,0 0 0 7 4 N 1012,6 32 0,0
23.05.2020 22:00:00 7,6 6,4 0 0 7 4 N 1012,8 31 0,0
23.05.2020 21:00:00 8,2 6,2 0 0 9 5 N 1013,0 9 0,0
23.05.2020 20:00:00 8,6 5,5 0 0 10 6 N 1012,9 50 0,0
23.05.2020 19:00:00 8,7 5,4 0 0 10 5 N 1013,2 50 0,0
23.05.2020 18:00:00 8,7 4,9 0 0 16 9 N 1013,5 50 0,0
23.05.2020 17:00:00 9,1 4,9 3 1 24 13 OZO 1014,1 50 0,0
23.05.2020 16:00:00 9,2 5,0 4 2 24 13 ZO 1014,5 50 0,0
23.05.2020 15:00:00 8,9 5,5 3 1 21 11 ZZO 1015,2 50 0,1
23.05.2020 14:00:00 9,6 6,1 4 2 34 19 ZO 1015,6 23 0,0
23.05.2020 13:00:00 10,6 6,7 3 1 15 8 ZZO 1015,8 45 0,1
23.05.2020 12:00:00 10,6 6,5 3 2 16 8 ZZO 1016,2 48 0,1
23.05.2020 11:00:00 10,1 6,3 5 3 27 15 Z 1016,4 44 0,2
23.05.2020 10:00:00 10,2 5,4 6 4 25 14 Z 1016,7 26 0,0
23.05.2020 09:00:00 11,1 3,4 6 4 22 12 Z 1017,1 48 0,0
23.05.2020 08:00:00 11,1 3,6 3 2 15 8 ZZO 1017,2 49 0,0
23.05.2020 07:00:00 10,3 4,7 3 1 14 8 ZZO 1017,3 50 0,0
23.05.2020 06:00:00 8,9 4,3 0 0 11 6 N 1017,7 50 0,0
23.05.2020 05:00:00 8,1 3,9 0 0 7 4 N 1018,1 50 0,0
23.05.2020 04:00:00 7,1 3,5 0 0 5 3 N 1018,3 50 0,0
23.05.2020 03:00:00 6,7 2,8 0 0 7 4 N 1018,9 50 0,0
23.05.2020 02:00:00 6,2 1,5 0 0 7 4 N 1019,1 50 0,0
23.05.2020 01:00:00 7,1 1,0 0 0 12 7 N 1019,5 50 0,0
23.05.2020 00:00:00 8,5 -0,3 0 0 10 5 N 1020,1 50 0,0
22.05.2020 23:00:00 7,7 -1,3 0 0 8 5 N 1020,6 50 0,0
22.05.2020 22:00:00 9,5 -2,8 0 0 11 6 N 1020,8 50 0,0
22.05.2020 21:00:00 11,1 -2,7 0 0 14 8 N 1020,9 50 0,0
22.05.2020 20:00:00 14,5 -3,8 2 1 13 7 ZO 1020,9 50 0,0
22.05.2020 19:00:00 16,4 -2,2 3 1 16 9 ZZO 1020,9 50 0,0
22.05.2020 18:00:00 17,2 0,8 3 2 19 10 ZO 1021,3 44 0,0
22.05.2020 17:00:00 19,0 1,9 3 2 18 10 Z 1021,8 47 0,0
22.05.2020 16:00:00 19,1 -0,3 3 2 16 9 ZZO 1022,5 45 0,0
22.05.2020 15:00:00 18,7 -1,7 3 2 25 14 ZZO 1023,1 44 0,0
22.05.2020 14:00:00 18,3 -2,1 5 3 16 9 Z 1023,6 44 0,0
22.05.2020 13:00:00 18,0 -0,3 3 1 16 9 OZO 1024,2 37 0,0
22.05.2020 12:00:00 16,4 -0,8 5 3 21 12 Z 1024,4 39 0,0
22.05.2020 11:00:00 15,7 -0,1 4 2 14 7 Z 1024,7 44 0,0
22.05.2020 10:00:00 13,9 -1,3 6 3 13 7 O 1024,9 44 0,0
22.05.2020 09:00:00 12,0 -1,2 0 0 10 6 N 1025,0 50 0,0
22.05.2020 08:00:00 11,6 -2,6 5 3 16 9 O 1025,2 47 0,0
22.05.2020 07:00:00 10,8 -2,3 3 2 10 6 O 1025,1 50 0,0
22.05.2020 06:00:00 5,2 -0,4 0 0 5 3 N 1025,5 50 0,0
22.05.2020 05:00:00 5,0 0,4 0 0 5 3 N 1025,5 50 0,0
22.05.2020 04:00:00 4,7 -0,1 0 0 4 2 N 1025,5 50 0,0
22.05.2020 03:00:00 5,0 -0,4 0 0 10 6 N 1025,2 50 0,0
22.05.2020 02:00:00 6,1 0,4 2 1 5 3 O 1025,0 50 0,0
22.05.2020 01:00:00 6,2 0,9 0 0 5 3 N 1025,0 50 0,0
22.05.2020 00:00:00 8,9 1,3 0 0 7 4 N 1024,7 50 0,0
21.05.2020 23:00:00 9,2 0,1 2 1 6 3 OZO 1024,6 50 0,0
21.05.2020 22:00:00 9,6 -1,2 0 0 8 5 N 1024,2 45 0,0
21.05.2020 21:00:00 11,4 -1,1 4 2 10 6 O 1023,6 50 0,0
21.05.2020 20:00:00 13,4 -1,8 4 2 9 5 O 1023,2 50 0,0
21.05.2020 19:00:00 15,7 -2,8 0 0 10 5 N 1022,7 50 0,0
21.05.2020 18:00:00 17,7 -6,9 3 1 13 7 O 1022,7 47 0,0
21.05.2020 17:00:00 17,5 -7,8 2 1 13 7 O 1023,0 46 0,0
21.05.2020 16:00:00 18,0 -4,7 5 3 23 12 NNO 1023,2 39 0,0
21.05.2020 15:00:00 18,2 -3,9 4 2 20 11 ZZW 1023,5 43 0,0
21.05.2020 14:00:00 17,1 -4,2 9 5 18 10 N 1023,8 44 0,0
21.05.2020 13:00:00 16,2 -3,9 8 4 18 10 ZW 1024,2 45 0,0
21.05.2020 12:00:00 15,0 -3,4 6 4 17 9 NNO 1024,7 40 0,0
21.05.2020 11:00:00 14,4 -3,4 10 6 16 9 NNO 1025,0 46 0,0
21.05.2020 10:00:00 14,2 -2,7 4 2 9 5 NW 1025,0 50 0,0
21.05.2020 09:00:00 12,8 -1,9 3 2 8 5 WZW 1025,0 46 0,0
21.05.2020 08:00:00 10,5 0,8 2 1 5 3 ZZW 1025,0 50 0,0
21.05.2020 07:00:00 6,3 2,2 0 0 3 1 N 1025,1 50 0,0
21.05.2020 06:00:00 1,5 -0,6 0 0 3 2 N 1025,2 50 0,0
21.05.2020 05:00:00 -1,1 -2,1 0 0 2 1 N 1025,3 50 0,0
21.05.2020 04:00:00 -1,5 -2,3 0 0 1 1 N 1025,1 50 0,0
21.05.2020 03:00:00 -0,7 -2,1 0 0 1 1 N 1025,2 50 0,0
21.05.2020 02:00:00 0,1 -1,8 0 0 3 1 N 1025,1 50 0,0
21.05.2020 01:00:00 1,0 -1,4 0 0 4 2 N 1024,9 50 0,0
21.05.2020 00:00:00 2,4 -1,4 0 0 2 1 N 1024,8 32 0,0
20.05.2020 23:00:00 4,8 -2,1 0 0 2 1 N 1024,4 50 0,0
20.05.2020 22:00:00 6,2 -1,2 0 0 5 3 N 1024,0 50 0,0
20.05.2020 21:00:00 9,9 -2,1 0 0 15 8 N 1023,5 50 0,0
20.05.2020 20:00:00 12,7 -5,8 8 4 17 9 NNO 1023,2 50 0,0
20.05.2020 19:00:00 13,4 -4,3 8 5 21 11 NNO 1023,1 46 0,0
20.05.2020 18:00:00 13,4 -5,2 5 3 20 11 ONO 1022,9 41 0,0
20.05.2020 17:00:00 12,8 -4,4 5 3 16 9 NNW 1023,0 50 0,0
20.05.2020 16:00:00 12,4 -4,7 3 2 19 11 N 1022,9 50 0,0
20.05.2020 15:00:00 13,3 -3,1 7 4 16 9 NO 1022,9 50 0,0
20.05.2020 14:00:00 11,8 -3,6 12 7 23 12 N 1022,9 50 0,0
20.05.2020 13:00:00 11,9 -4,3 7 4 24 13 NNW 1022,9 48 0,0
20.05.2020 12:00:00 10,8 -4,1 9 5 27 14 N 1022,9 50 0,0
20.05.2020 11:00:00 11,5 -2,7 15 8 27 15 NNO 1022,8 45 0,0
20.05.2020 10:00:00 10,1 -0,7 12 7 23 12 N 1022,8 39 0,0
20.05.2020 09:00:00 8,8 -0,8 11 6 19 11 N 1022,7 50 0,0
20.05.2020 08:00:00 7,1 0,7 8 4 15 8 N 1022,3 50 0,0
20.05.2020 07:00:00 5,0 -0,4 9 5 16 8 NNW 1022,0 50 0,0
20.05.2020 06:00:00 1,3 -0,2 0 0 3 2 N 1021,5 50 0,0
20.05.2020 05:00:00 -1,5 -1,6 0 0 2 1 N 1021,0 50 0,0
20.05.2020 04:00:00 -1,5 -1,6 0 0 1 1 N 1020,7 50 0,0
20.05.2020 03:00:00 -1,3 -2,0 0 0 3 1 N 1020,4 50 0,0
20.05.2020 02:00:00 -0,6 -1,2 3 1 4 2 N 1019,9 50 0,0
20.05.2020 01:00:00 -0,3 -1,9 0 0 4 2 N 1019,3 50 0,0
20.05.2020 00:00:00 1,0 -0,9 0 0 2 1 N 1018,7 50 0,0
19.05.2020 23:00:00 3,4 -0,2 0 0 4 2 N 1018,1 50 0,0
19.05.2020 22:00:00 6,1 0,0 0 0 7 4 N 1017,3 50 0,0
19.05.2020 21:00:00 8,0 -0,7 6 4 26 14 NO 1016,7 50 0,0
19.05.2020 20:00:00 9,4 -1,9 27 15 49 26 NNO 1016,0 50 0,0
19.05.2020 19:00:00 11,8 -4,4 18 10 27 15 N 1014,8 50 0,0
19.05.2020 18:00:00 11,7 -5,8 16 8 29 16 NNW 1014,3 50 0,0
19.05.2020 17:00:00 11,9 -3,1 16 9 32 17 NNW 1013,8 42 0,0
19.05.2020 16:00:00 11,4 -3,5 18 10 32 17 NNW 1013,6 50 0,0
19.05.2020 15:00:00 12,0 -3,0 16 8 26 14 WNW 1013,1 50 0,0
19.05.2020 14:00:00 11,9 -1,6 12 6 28 15 NW 1012,8 44 0,0
19.05.2020 13:00:00 11,6 -1,2 8 5 18 10 NW 1012,6 48 0,0

tt = temperatuur
td = dauwpunt
ff = windsnelheid
fx = windstoten
dd = windrichting
ppp = luchtdruk
vv = zicht
rr = neerslag

Weerstations in de omgeving